{"data":{"norad_id":67077,"intl_designator":"2025-298C","name":"STARLINK-36243","alt_names":[],"object_type":"PAYLOAD","status":"ACTIVE","operator":null,"country":"US","launch_date":"2025-12-14","launch_site_code":"AFWTR","launch_vehicle":null,"mission":null,"orbit_class":"UNKNOWN","rcs_meters":null,"size_class":null,"mass_kg":null,"dimensions":null,"purposes":["comms"],"wikipedia_slug":null,"has_3d_model":false,"image_url":null,"decayed_at":null,"tle_current":{"epoch":"2026-09-20T05:35:09.653568Z","epoch_age_seconds":104412,"freshness":"FRESH","line1":"1 67077U 25298C   26263.23275062  .00003277  00000+0  28225-3 0  9999","line2":"2 67077  69.9992 244.1212 0003889 267.3838  92.6876 14.98337821 42352","mean_motion":14.98337821,"eccentricity":0.0003889,"inclination_deg":69.9992,"raan_deg":244.1212,"arg_perigee_deg":267.3838,"mean_anomaly_deg":92.6876,"bstar":0.00028225,"rev_number":4235,"period_min":96.106497467903,"perigee_km":569.3287846428,"apogee_km":574.73462586175,"semimajor_km":6950.1687052523,"source":"CELESTRAK","updated_at":"2026-09-21T09:00:36.097670Z"}}}